Year,Month,Day,Hour,Minute,Value (Times are PST for temperature in C)
2007,06,28,00,00,16.50
2007,06,28,00,01,16.50
2007,06,28,00,02,16.50
2007,06,28,00,03,16.50
2007,06,28,00,04,16.40
2007,06,28,00,05,16.40
2007,06,28,00,06,16.40
2007,06,28,00,07,16.40
2007,06,28,00,08,16.40
2007,06,28,00,09,16.30
2007,06,28,00,10,16.30
2007,06,28,00,11,16.30
2007,06,28,00,12,16.20
2007,06,28,00,13,16.20
2007,06,28,00,14,16.10
2007,06,28,00,15,16.10
2007,06,28,00,16,16.00
2007,06,28,00,17,15.90
2007,06,28,00,18,15.90
2007,06,28,00,19,15.80
2007,06,28,00,20,15.80
2007,06,28,00,21,15.70
2007,06,28,00,22,15.70
2007,06,28,00,23,15.70
2007,06,28,00,24,15.60
2007,06,28,00,25,15.60
2007,06,28,00,26,15.60
2007,06,28,00,27,15.50
2007,06,28,00,28,15.50
2007,06,28,00,29,15.40
2007,06,28,00,30,15.40
2007,06,28,00,31,15.40
2007,06,28,00,32,15.30
2007,06,28,00,33,15.30
2007,06,28,00,34,15.20
2007,06,28,00,35,15.20
2007,06,28,00,36,15.20
2007,06,28,00,37,15.20
2007,06,28,00,38,15.20
2007,06,28,00,39,15.10
2007,06,28,00,40,15.10
2007,06,28,00,41,15.10
2007,06,28,00,42,15.10
2007,06,28,00,43,15.10
2007,06,28,00,44,15.10
2007,06,28,00,45,15.10
2007,06,28,00,46,15.10
2007,06,28,00,47,15.00
2007,06,28,00,48,15.00
2007,06,28,00,49,15.00
2007,06,28,00,50,15.00
2007,06,28,00,51,15.00
2007,06,28,00,52,15.00
2007,06,28,00,53,15.00
2007,06,28,00,54,15.00
2007,06,28,00,55,15.00
2007,06,28,00,56,15.00
2007,06,28,00,57,15.00
2007,06,28,00,58,15.00
2007,06,28,00,59,15.00
2007,06,28,01,00,14.90
2007,06,28,01,01,14.90
2007,06,28,01,02,14.80
2007,06,28,01,03,14.80
2007,06,28,01,04,14.80
2007,06,28,01,05,14.80
2007,06,28,01,06,14.70
2007,06,28,01,07,14.70
2007,06,28,01,08,14.70
2007,06,28,01,09,14.70
2007,06,28,01,10,14.70
2007,06,28,01,11,14.70
2007,06,28,01,12,14.70
2007,06,28,01,13,14.70
2007,06,28,01,14,14.60
2007,06,28,01,15,14.60
2007,06,28,01,16,14.60
2007,06,28,01,17,14.60
2007,06,28,01,18,14.60
2007,06,28,01,19,14.60
2007,06,28,01,20,14.60
2007,06,28,01,21,14.70
2007,06,28,01,22,14.70
2007,06,28,01,23,14.70
2007,06,28,01,24,14.70
2007,06,28,01,25,14.70
2007,06,28,01,26,14.70
2007,06,28,01,27,14.70
2007,06,28,01,28,14.70
2007,06,28,01,29,14.70
2007,06,28,01,30,14.70
2007,06,28,01,31,14.70
2007,06,28,01,32,14.70
2007,06,28,01,33,14.70
2007,06,28,01,34,14.70
2007,06,28,01,35,14.70
2007,06,28,01,36,14.70
2007,06,28,01,37,14.70
2007,06,28,01,38,14.70
2007,06,28,01,39,14.70
2007,06,28,01,40,14.60
2007,06,28,01,41,14.60
2007,06,28,01,42,14.60
2007,06,28,01,43,14.60
2007,06,28,01,44,14.60
2007,06,28,01,45,14.50
2007,06,28,01,46,14.50
2007,06,28,01,47,14.50
2007,06,28,01,48,14.40
2007,06,28,01,49,14.40
2007,06,28,01,50,14.40
2007,06,28,01,51,14.40
2007,06,28,01,52,14.40
2007,06,28,01,53,14.40
2007,06,28,01,54,14.40
2007,06,28,01,55,14.40
2007,06,28,01,56,14.30
2007,06,28,01,57,14.30
2007,06,28,01,58,14.30
2007,06,28,01,59,14.30
2007,06,28,02,00,14.30
2007,06,28,02,01,14.30
2007,06,28,02,02,14.30
2007,06,28,02,03,14.40
2007,06,28,02,04,14.40
2007,06,28,02,05,14.40
2007,06,28,02,06,14.40
2007,06,28,02,07,14.40
2007,06,28,02,08,14.40
2007,06,28,02,09,14.40
2007,06,28,02,10,14.40
2007,06,28,02,11,14.40
2007,06,28,02,12,14.40
2007,06,28,02,13,14.40
2007,06,28,02,14,14.40
2007,06,28,02,15,14.40
2007,06,28,02,16,14.40
2007,06,28,02,17,14.30
2007,06,28,02,18,14.30
2007,06,28,02,19,14.30
2007,06,28,02,20,14.30
2007,06,28,02,21,14.30
2007,06,28,02,22,14.30
2007,06,28,02,23,14.30
2007,06,28,02,24,14.30
2007,06,28,02,25,14.30
2007,06,28,02,26,14.30
2007,06,28,02,27,14.20
2007,06,28,02,28,14.20
2007,06,28,02,29,14.20
2007,06,28,02,30,14.20
2007,06,28,02,31,14.20
2007,06,28,02,32,14.20
2007,06,28,02,33,14.10
2007,06,28,02,34,14.10
2007,06,28,02,35,14.10
2007,06,28,02,36,14.10
2007,06,28,02,37,14.10
2007,06,28,02,38,14.00
2007,06,28,02,39,14.00
2007,06,28,02,40,14.00
2007,06,28,02,41,14.00
2007,06,28,02,42,13.90
2007,06,28,02,43,13.90
2007,06,28,02,44,13.90
2007,06,28,02,45,13.90
2007,06,28,02,46,13.80
2007,06,28,02,47,13.80
2007,06,28,02,48,13.80
2007,06,28,02,49,13.80
2007,06,28,02,50,13.80
2007,06,28,02,51,13.80
2007,06,28,02,52,13.70
2007,06,28,02,53,13.70
2007,06,28,02,54,13.70
2007,06,28,02,55,13.70
2007,06,28,02,56,13.70
2007,06,28,02,57,13.60
2007,06,28,02,58,13.60
2007,06,28,02,59,13.60
2007,06,28,03,00,13.60
2007,06,28,03,01,13.60
2007,06,28,03,02,13.60
2007,06,28,03,03,13.60
2007,06,28,03,04,13.50
2007,06,28,03,05,13.50
2007,06,28,03,06,13.50
2007,06,28,03,07,13.50
2007,06,28,03,08,13.50
2007,06,28,03,09,13.40
2007,06,28,03,10,13.40
2007,06,28,03,11,13.40
2007,06,28,03,12,13.40
2007,06,28,03,13,13.40
2007,06,28,03,14,13.40
2007,06,28,03,15,13.40
2007,06,28,03,16,13.40
2007,06,28,03,17,13.40
2007,06,28,03,18,13.40
2007,06,28,03,19,13.40
2007,06,28,03,20,13.30
2007,06,28,03,21,13.30
2007,06,28,03,22,13.30
2007,06,28,03,23,13.30
2007,06,28,03,24,13.30
2007,06,28,03,25,13.30
2007,06,28,03,26,13.30
2007,06,28,03,27,13.30
2007,06,28,03,28,13.30
2007,06,28,03,29,13.30
2007,06,28,03,30,13.30
2007,06,28,03,31,13.30
2007,06,28,03,32,13.30
2007,06,28,03,33,13.30
2007,06,28,03,34,13.30
2007,06,28,03,35,13.30
2007,06,28,03,36,13.30
2007,06,28,03,37,13.30
2007,06,28,03,38,13.30
2007,06,28,03,39,13.30
2007,06,28,03,40,13.30
2007,06,28,03,41,13.30
2007,06,28,03,42,13.30
2007,06,28,03,43,13.30
2007,06,28,03,44,13.30
2007,06,28,03,45,13.30
2007,06,28,03,46,13.30
2007,06,28,03,47,13.30
2007,06,28,03,48,13.30
2007,06,28,03,49,13.30
2007,06,28,03,50,13.30
2007,06,28,03,51,13.20
2007,06,28,03,52,13.30
2007,06,28,03,53,13.20
2007,06,28,03,54,13.20
2007,06,28,03,55,13.20
2007,06,28,03,56,13.20
2007,06,28,03,57,13.20
2007,06,28,03,58,13.20
2007,06,28,03,59,13.20
2007,06,28,04,00,13.20
2007,06,28,04,01,13.20
2007,06,28,04,02,13.20
2007,06,28,04,03,13.20
2007,06,28,04,04,13.20
2007,06,28,04,05,13.20
2007,06,28,04,06,13.20
2007,06,28,04,07,13.20
2007,06,28,04,08,13.20
2007,06,28,04,09,13.20
2007,06,28,04,10,13.20
2007,06,28,04,11,13.20
2007,06,28,04,12,13.20
2007,06,28,04,13,13.20
2007,06,28,04,14,13.20
2007,06,28,04,15,13.20
2007,06,28,04,16,13.20
2007,06,28,04,17,13.20
2007,06,28,04,18,13.20
2007,06,28,04,19,13.10
2007,06,28,04,20,13.10
2007,06,28,04,21,13.10
2007,06,28,04,22,13.10
2007,06,28,04,23,13.10
2007,06,28,04,24,13.10
2007,06,28,04,25,13.10
2007,06,28,04,26,13.10
2007,06,28,04,27,13.10
2007,06,28,04,28,13.10
2007,06,28,04,29,13.10
2007,06,28,04,30,13.10
2007,06,28,04,31,13.10
2007,06,28,04,32,13.10
2007,06,28,04,33,13.10
2007,06,28,04,34,13.10
2007,06,28,04,35,13.10
2007,06,28,04,36,13.10
2007,06,28,04,37,13.10
2007,06,28,04,38,13.10
2007,06,28,04,39,13.10
2007,06,28,04,40,13.10
2007,06,28,04,41,13.10
2007,06,28,04,42,13.10
2007,06,28,04,43,13.10
2007,06,28,04,44,13.10
2007,06,28,04,45,13.10
2007,06,28,04,46,13.10
2007,06,28,04,47,13.10
2007,06,28,04,48,13.10
2007,06,28,04,49,13.00
2007,06,28,04,50,13.00
2007,06,28,04,51,13.00
2007,06,28,04,52,13.00
2007,06,28,04,53,12.90
2007,06,28,04,54,12.90
2007,06,28,04,55,12.90
2007,06,28,04,56,12.90
2007,06,28,04,57,12.90
2007,06,28,04,58,12.90
2007,06,28,04,59,12.80
2007,06,28,05,00,12.80
2007,06,28,05,01,12.80
2007,06,28,05,02,12.80
2007,06,28,05,03,12.80
2007,06,28,05,04,12.80
2007,06,28,05,05,12.80
2007,06,28,05,06,12.70
2007,06,28,05,07,12.70
2007,06,28,05,08,12.70
2007,06,28,05,09,12.70
2007,06,28,05,10,12.70
2007,06,28,05,11,12.70
2007,06,28,05,12,12.60
2007,06,28,05,13,12.60
2007,06,28,05,14,12.60
2007,06,28,05,15,12.60
2007,06,28,05,16,12.60
2007,06,28,05,17,12.50
2007,06,28,05,18,12.50
2007,06,28,05,19,12.50
2007,06,28,05,20,12.40
2007,06,28,05,21,12.40
2007,06,28,05,22,12.40
2007,06,28,05,23,12.40
2007,06,28,05,24,12.40
2007,06,28,05,25,12.40
2007,06,28,05,26,12.40
2007,06,28,05,27,12.40
2007,06,28,05,28,12.40
2007,06,28,05,29,12.40
2007,06,28,05,30,12.40
2007,06,28,05,31,12.40
2007,06,28,05,32,12.40
2007,06,28,05,33,12.40
2007,06,28,05,34,12.40
2007,06,28,05,35,12.40
2007,06,28,05,36,12.40
2007,06,28,05,37,12.40
2007,06,28,05,38,12.40
2007,06,28,05,39,12.40
2007,06,28,05,40,12.40
2007,06,28,05,41,12.40
2007,06,28,05,42,12.50
2007,06,28,05,43,12.50
2007,06,28,05,44,12.50
2007,06,28,05,45,12.50
2007,06,28,05,46,12.50
2007,06,28,05,47,12.50
2007,06,28,05,48,12.50
2007,06,28,05,49,12.50
2007,06,28,05,50,12.60
2007,06,28,05,51,12.60
2007,06,28,05,52,12.60
2007,06,28,05,53,12.60
2007,06,28,05,54,12.60
2007,06,28,05,55,12.60
2007,06,28,05,56,12.60
2007,06,28,05,57,12.60
2007,06,28,05,58,12.60
2007,06,28,05,59,12.60
2007,06,28,06,00,12.60
2007,06,28,06,01,12.60
2007,06,28,06,02,12.60
2007,06,28,06,03,12.70
2007,06,28,06,04,12.70
2007,06,28,06,05,12.70
2007,06,28,06,06,12.70
2007,06,28,06,07,12.70
2007,06,28,06,08,12.70
2007,06,28,06,09,12.70
2007,06,28,06,10,12.70
2007,06,28,06,11,12.70
2007,06,28,06,12,12.70
2007,06,28,06,13,12.70
2007,06,28,06,14,12.70
2007,06,28,06,15,12.80
2007,06,28,06,16,12.80
2007,06,28,06,17,12.80
2007,06,28,06,18,12.80
2007,06,28,06,19,12.80
2007,06,28,06,20,12.80
2007,06,28,06,21,12.80
2007,06,28,06,22,12.80
2007,06,28,06,23,12.80
2007,06,28,06,24,12.80
2007,06,28,06,25,12.80
2007,06,28,06,26,12.80
2007,06,28,06,27,12.80
2007,06,28,06,28,12.90
2007,06,28,06,29,12.90
2007,06,28,06,30,12.90
2007,06,28,06,31,12.90
2007,06,28,06,32,12.90
2007,06,28,06,33,12.90
2007,06,28,06,34,12.90
2007,06,28,06,35,12.90
2007,06,28,06,36,12.90
2007,06,28,06,37,12.90
2007,06,28,06,38,12.90
2007,06,28,06,39,13.00
2007,06,28,06,40,13.00
2007,06,28,06,41,13.00
2007,06,28,06,42,13.00
2007,06,28,06,43,13.00
2007,06,28,06,44,13.00
2007,06,28,06,45,13.10
2007,06,28,06,46,13.10
2007,06,28,06,47,13.10
2007,06,28,06,48,13.10
2007,06,28,06,49,13.10
2007,06,28,06,50,13.10
2007,06,28,06,51,13.10
2007,06,28,06,52,13.10
2007,06,28,06,53,13.20
2007,06,28,06,54,13.20
2007,06,28,06,55,13.20
2007,06,28,06,56,13.20
2007,06,28,06,57,13.20
2007,06,28,06,58,13.20
2007,06,28,06,59,13.20
2007,06,28,07,00,13.20
2007,06,28,07,01,13.20
2007,06,28,07,02,13.20
2007,06,28,07,03,13.20
2007,06,28,07,04,13.20
2007,06,28,07,05,13.20
2007,06,28,07,06,13.20
2007,06,28,07,07,13.20
2007,06,28,07,08,13.20
2007,06,28,07,09,13.30
2007,06,28,07,10,13.30
2007,06,28,07,11,13.30
2007,06,28,07,12,13.30
2007,06,28,07,13,13.30
2007,06,28,07,14,13.30
2007,06,28,07,15,13.30
2007,06,28,07,16,13.30
2007,06,28,07,17,13.30
2007,06,28,07,18,13.30
2007,06,28,07,19,13.30
2007,06,28,07,20,13.30
2007,06,28,07,21,13.30
2007,06,28,07,22,13.30
2007,06,28,07,23,13.40
2007,06,28,07,24,13.40
2007,06,28,07,25,13.40
2007,06,28,07,26,13.40
2007,06,28,07,27,13.40
2007,06,28,07,28,13.40
2007,06,28,07,29,13.40
2007,06,28,07,30,13.50
2007,06,28,07,31,13.50
2007,06,28,07,32,13.50
2007,06,28,07,33,13.50
2007,06,28,07,34,13.60
2007,06,28,07,35,13.60
2007,06,28,07,36,13.60
2007,06,28,07,37,13.60
2007,06,28,07,38,13.60
2007,06,28,07,39,13.60
2007,06,28,07,40,13.60
2007,06,28,07,41,13.70
2007,06,28,07,42,13.70
2007,06,28,07,43,13.70
2007,06,28,07,44,13.70
2007,06,28,07,45,13.70
2007,06,28,07,46,13.70
2007,06,28,07,47,13.70
2007,06,28,07,48,13.70
2007,06,28,07,49,13.70
2007,06,28,07,50,13.80
2007,06,28,07,51,13.80
2007,06,28,07,52,13.80
2007,06,28,07,53,13.80
2007,06,28,07,54,13.80
2007,06,28,07,55,13.80
2007,06,28,07,56,13.80
2007,06,28,07,57,13.80
2007,06,28,07,58,13.90
2007,06,28,07,59,13.90
2007,06,28,08,00,13.90
2007,06,28,08,01,13.90
2007,06,28,08,02,13.90
2007,06,28,08,03,13.90
2007,06,28,08,04,13.90
2007,06,28,08,05,14.00
2007,06,28,08,06,14.00
2007,06,28,08,07,14.00
2007,06,28,08,08,14.00
2007,06,28,08,09,14.10
2007,06,28,08,10,14.10
2007,06,28,08,11,14.10
2007,06,28,08,12,14.10
2007,06,28,08,13,14.10
2007,06,28,08,14,14.10
2007,06,28,08,15,14.20
2007,06,28,08,16,14.20
2007,06,28,08,17,14.20
2007,06,28,08,18,14.20
2007,06,28,08,19,14.20
2007,06,28,08,20,14.20
2007,06,28,08,21,14.30
2007,06,28,08,22,14.30
2007,06,28,08,23,14.30
2007,06,28,08,24,14.30
2007,06,28,08,25,14.30
2007,06,28,08,26,14.40
2007,06,28,08,27,14.40
2007,06,28,08,28,14.40
2007,06,28,08,29,14.40
2007,06,28,08,30,14.50
2007,06,28,08,31,14.50
2007,06,28,08,32,14.50
2007,06,28,08,33,14.50
2007,06,28,08,34,14.60
2007,06,28,08,35,14.60
2007,06,28,08,36,14.60
2007,06,28,08,37,14.60
2007,06,28,08,38,14.60
2007,06,28,08,39,14.60
2007,06,28,08,40,14.60
2007,06,28,08,41,14.60
2007,06,28,08,42,14.60
2007,06,28,08,43,14.60
2007,06,28,08,44,14.70
2007,06,28,08,45,14.70
2007,06,28,08,46,14.70
2007,06,28,08,47,14.70
2007,06,28,08,48,14.70
2007,06,28,08,49,14.80
2007,06,28,08,50,14.80
2007,06,28,08,51,14.90
2007,06,28,08,52,14.90
2007,06,28,08,53,15.00
2007,06,28,08,54,15.00
2007,06,28,08,55,15.00
2007,06,28,08,56,15.00
2007,06,28,08,57,15.00
2007,06,28,08,58,15.00
2007,06,28,08,59,15.00
2007,06,28,09,00,15.00
2007,06,28,09,01,15.00
2007,06,28,09,02,15.00
2007,06,28,09,03,15.00
2007,06,28,09,04,15.10
2007,06,28,09,05,15.20
2007,06,28,09,06,15.20
2007,06,28,09,07,15.20
2007,06,28,09,08,15.30
2007,06,28,09,09,15.30
2007,06,28,09,10,15.30
2007,06,28,09,11,15.40
2007,06,28,09,12,15.40
2007,06,28,09,13,15.40
2007,06,28,09,14,15.40
2007,06,28,09,15,15.40
2007,06,28,09,16,15.50
2007,06,28,09,17,15.50
2007,06,28,09,18,15.50
2007,06,28,09,19,15.60
2007,06,28,09,20,15.60
2007,06,28,09,21,15.60
2007,06,28,09,22,15.70
2007,06,28,09,23,15.80
2007,06,28,09,24,15.80
2007,06,28,09,25,15.90
2007,06,28,09,26,15.90
2007,06,28,09,27,16.00
2007,06,28,09,28,16.00
2007,06,28,09,29,16.10
2007,06,28,09,30,16.20
2007,06,28,09,31,16.20
2007,06,28,09,32,16.20
2007,06,28,09,33,16.30
2007,06,28,09,34,16.40
2007,06,28,09,35,16.50
2007,06,28,09,36,16.60
2007,06,28,09,37,16.60
2007,06,28,09,38,16.70
2007,06,28,09,39,16.70
2007,06,28,09,40,16.80
2007,06,28,09,41,16.80
2007,06,28,09,42,16.80
2007,06,28,09,43,16.80
2007,06,28,09,44,16.90
2007,06,28,09,45,16.90
2007,06,28,09,46,16.90
2007,06,28,09,47,16.90
2007,06,28,09,48,17.00
2007,06,28,09,49,17.10
2007,06,28,09,50,17.10
2007,06,28,09,51,17.20
2007,06,28,09,52,17.30
2007,06,28,09,53,17.40
2007,06,28,09,54,17.50
2007,06,28,09,55,17.60
2007,06,28,09,56,17.70
2007,06,28,09,57,17.80
2007,06,28,09,58,17.80
2007,06,28,09,59,17.80
2007,06,28,10,00,17.80
2007,06,28,10,01,17.90
2007,06,28,10,02,17.90
2007,06,28,10,03,17.90
2007,06,28,10,04,17.90
2007,06,28,10,05,17.90
2007,06,28,10,06,17.80
2007,06,28,10,07,17.80
2007,06,28,10,08,17.70
2007,06,28,10,09,17.70
2007,06,28,10,10,17.70
2007,06,28,10,11,17.70
2007,06,28,10,12,17.70
2007,06,28,10,13,17.70
2007,06,28,10,14,17.60
2007,06,28,10,15,17.60
2007,06,28,10,16,17.60
2007,06,28,10,17,17.60
2007,06,28,10,18,17.60
2007,06,28,10,19,17.60
2007,06,28,10,20,17.60
2007,06,28,10,21,17.60
2007,06,28,10,22,17.50
2007,06,28,10,23,17.50
2007,06,28,10,24,17.50
2007,06,28,10,25,17.50
2007,06,28,10,26,17.50
2007,06,28,10,27,17.50
2007,06,28,10,28,17.50
2007,06,28,10,29,17.50
2007,06,28,10,30,17.50
2007,06,28,10,31,17.50
2007,06,28,10,32,17.60
2007,06,28,10,33,17.50
2007,06,28,10,34,17.50
2007,06,28,10,35,17.50
2007,06,28,10,36,17.40
2007,06,28,10,37,17.40
2007,06,28,10,38,17.40
2007,06,28,10,39,17.40
2007,06,28,10,40,17.50
2007,06,28,10,41,17.50
2007,06,28,10,42,17.50
2007,06,28,10,43,17.50
2007,06,28,10,44,17.50
2007,06,28,10,45,17.60
2007,06,28,10,46,17.60
2007,06,28,10,47,17.50
2007,06,28,10,48,17.40
2007,06,28,10,49,17.40
2007,06,28,10,50,17.40
2007,06,28,10,51,17.40
2007,06,28,10,52,17.40
2007,06,28,10,53,17.40
2007,06,28,10,54,17.40
2007,06,28,10,55,17.50
2007,06,28,10,56,17.50
2007,06,28,10,57,17.60
2007,06,28,10,58,17.60
2007,06,28,10,59,17.70
2007,06,28,11,00,17.70
2007,06,28,11,01,17.70
2007,06,28,11,02,17.80
2007,06,28,11,03,17.80
2007,06,28,11,04,17.80
2007,06,28,11,05,17.80
2007,06,28,11,06,17.80
2007,06,28,11,07,17.80
2007,06,28,11,08,17.80
2007,06,28,11,09,17.80
2007,06,28,11,10,17.80
2007,06,28,11,11,17.80
2007,06,28,11,12,17.80
2007,06,28,11,13,17.80
2007,06,28,11,14,17.70
2007,06,28,11,15,17.70
2007,06,28,11,16,17.70
2007,06,28,11,17,17.70
2007,06,28,11,18,17.70
2007,06,28,11,19,17.60
2007,06,28,11,20,17.60
2007,06,28,11,21,17.70
2007,06,28,11,22,17.70
2007,06,28,11,23,17.70
2007,06,28,11,24,17.80
2007,06,28,11,25,17.80
2007,06,28,11,26,17.80
2007,06,28,11,27,17.80
2007,06,28,11,28,17.80
2007,06,28,11,29,17.90
2007,06,28,11,30,17.90
2007,06,28,11,31,17.90
2007,06,28,11,32,17.90
2007,06,28,11,33,17.90
2007,06,28,11,34,17.90
2007,06,28,11,35,17.90
2007,06,28,11,36,17.90
2007,06,28,11,37,17.90
2007,06,28,11,38,17.90
2007,06,28,11,39,18.00
2007,06,28,11,40,18.00
2007,06,28,11,41,18.00
2007,06,28,11,42,18.00
2007,06,28,11,43,18.00
2007,06,28,11,44,17.90
2007,06,28,11,45,17.90
2007,06,28,11,46,17.90
2007,06,28,11,47,18.00
2007,06,28,11,48,18.00
2007,06,28,11,49,18.00
2007,06,28,11,50,18.10
2007,06,28,11,51,18.10
2007,06,28,11,52,18.20
2007,06,28,11,53,18.20
2007,06,28,11,54,18.20
2007,06,28,11,55,18.20
2007,06,28,11,56,18.20
2007,06,28,11,57,18.10
2007,06,28,11,58,18.00
2007,06,28,11,59,18.00
2007,06,28,12,00,17.90
2007,06,28,12,01,17.80
2007,06,28,12,02,17.80
2007,06,28,12,03,17.80
2007,06,28,12,04,17.80
2007,06,28,12,05,17.90
2007,06,28,12,06,17.90
2007,06,28,12,07,17.90
2007,06,28,12,08,17.90
2007,06,28,12,09,17.90
2007,06,28,12,10,17.90
2007,06,28,12,11,17.90
2007,06,28,12,12,17.90
2007,06,28,12,13,18.00
2007,06,28,12,14,18.00
2007,06,28,12,15,18.00
2007,06,28,12,16,18.00
2007,06,28,12,17,18.10
2007,06,28,12,18,18.10
2007,06,28,12,19,18.20
2007,06,28,12,20,18.30
2007,06,28,12,21,18.30
2007,06,28,12,22,18.30
2007,06,28,12,23,18.40
2007,06,28,12,24,18.40
2007,06,28,12,25,18.50
2007,06,28,12,26,18.50
2007,06,28,12,27,18.70
2007,06,28,12,28,18.80
2007,06,28,12,29,18.90
2007,06,28,12,30,19.10
2007,06,28,12,31,19.20
2007,06,28,12,32,19.20
2007,06,28,12,33,19.30
2007,06,28,12,34,19.30
2007,06,28,12,35,19.30
2007,06,28,12,36,19.30
2007,06,28,12,37,19.30
2007,06,28,12,38,19.30
2007,06,28,12,39,19.30
2007,06,28,12,40,19.30
2007,06,28,12,41,19.30
2007,06,28,12,42,19.30
2007,06,28,12,43,19.30
2007,06,28,12,44,19.30
2007,06,28,12,45,19.30
2007,06,28,12,46,19.30
2007,06,28,12,47,19.30
2007,06,28,12,48,19.30
2007,06,28,12,49,19.30
2007,06,28,12,50,19.30
2007,06,28,12,51,19.20
2007,06,28,12,52,19.20
2007,06,28,12,53,19.20
2007,06,28,12,54,19.30
2007,06,28,12,55,19.30
2007,06,28,12,56,19.30
2007,06,28,12,57,19.30
2007,06,28,12,58,19.30
2007,06,28,12,59,19.30
2007,06,28,13,00,19.20
2007,06,28,13,01,19.20
2007,06,28,13,02,19.20
2007,06,28,13,03,19.20
2007,06,28,13,04,19.20
2007,06,28,13,05,19.20
2007,06,28,13,06,19.20
2007,06,28,13,07,19.20
2007,06,28,13,08,19.30
2007,06,28,13,09,19.30
2007,06,28,13,10,19.30
2007,06,28,13,11,19.30
2007,06,28,13,12,19.30
2007,06,28,13,13,19.30
2007,06,28,13,14,19.20
2007,06,28,13,15,19.20
2007,06,28,13,16,19.20
2007,06,28,13,17,19.20
2007,06,28,13,18,19.20
2007,06,28,13,19,19.30
2007,06,28,13,20,19.30
2007,06,28,13,21,19.30
2007,06,28,13,22,19.40
2007,06,28,13,23,19.40
2007,06,28,13,24,19.50
2007,06,28,13,25,19.60
2007,06,28,13,26,19.60
2007,06,28,13,27,19.70
2007,06,28,13,28,19.70
2007,06,28,13,29,19.70
2007,06,28,13,30,19.80
2007,06,28,13,31,19.90
2007,06,28,13,32,20.00
2007,06,28,13,33,20.10
2007,06,28,13,34,20.20
2007,06,28,13,35,20.30
2007,06,28,13,36,20.40
2007,06,28,13,37,20.40
2007,06,28,13,38,20.40
2007,06,28,13,39,20.30
2007,06,28,13,40,20.40
2007,06,28,13,41,20.40
2007,06,28,13,42,20.40
2007,06,28,13,43,20.30
2007,06,28,13,44,20.30
2007,06,28,13,45,20.30
2007,06,28,13,46,20.30
2007,06,28,13,47,20.30
2007,06,28,13,48,20.30
2007,06,28,13,49,20.30
2007,06,28,13,50,20.30
2007,06,28,13,51,20.30
2007,06,28,13,52,20.30
2007,06,28,13,53,20.30
2007,06,28,13,54,20.20
2007,06,28,13,55,20.10
2007,06,28,13,56,20.10
2007,06,28,13,57,20.10
2007,06,28,13,58,20.00
2007,06,28,13,59,20.00
2007,06,28,14,00,19.90
2007,06,28,14,01,19.90
2007,06,28,14,02,19.90
2007,06,28,14,03,19.90
2007,06,28,14,04,19.90
2007,06,28,14,05,19.90
2007,06,28,14,06,19.90
2007,06,28,14,07,19.90
2007,06,28,14,08,19.80
2007,06,28,14,09,19.80
2007,06,28,14,10,19.80
2007,06,28,14,11,19.80
2007,06,28,14,12,19.80
2007,06,28,14,13,19.80
2007,06,28,14,14,19.80
2007,06,28,14,15,19.80
2007,06,28,14,16,19.80
2007,06,28,14,17,19.80
2007,06,28,14,18,19.80
2007,06,28,14,19,19.80
2007,06,28,14,20,19.80
2007,06,28,14,21,19.80
2007,06,28,14,22,19.70
2007,06,28,14,23,19.70
2007,06,28,14,24,19.70
2007,06,28,14,25,19.70
2007,06,28,14,26,19.80
2007,06,28,14,27,19.80
2007,06,28,14,28,19.80
2007,06,28,14,29,19.80
2007,06,28,14,30,19.90
2007,06,28,14,31,19.90
2007,06,28,14,32,19.90
2007,06,28,14,33,19.90
2007,06,28,14,34,19.90
2007,06,28,14,35,19.90
2007,06,28,14,36,19.90
2007,06,28,14,37,19.90
2007,06,28,14,38,19.90
2007,06,28,14,39,19.90
2007,06,28,14,40,19.90
2007,06,28,14,41,20.00
2007,06,28,14,42,20.00
2007,06,28,14,43,20.00
2007,06,28,14,44,20.10
2007,06,28,14,45,20.10
2007,06,28,14,46,20.10
2007,06,28,14,47,20.10
2007,06,28,14,48,20.10
2007,06,28,14,49,20.20
2007,06,28,14,50,20.20
2007,06,28,14,51,20.20
2007,06,28,14,52,20.20
2007,06,28,14,53,20.10
2007,06,28,14,54,20.00
2007,06,28,14,55,19.90
2007,06,28,14,56,19.90
2007,06,28,14,57,19.90
2007,06,28,14,58,19.90
2007,06,28,14,59,19.90
2007,06,28,15,00,19.90
2007,06,28,15,01,19.90
2007,06,28,15,02,19.90
2007,06,28,15,03,19.90
2007,06,28,15,04,20.00
2007,06,28,15,05,20.00
2007,06,28,15,06,19.90
2007,06,28,15,07,19.90
2007,06,28,15,08,19.90
2007,06,28,15,09,19.90
2007,06,28,15,10,19.80
2007,06,28,15,11,19.80
2007,06,28,15,12,19.70
2007,06,28,15,13,19.60
2007,06,28,15,14,19.60
2007,06,28,15,15,19.50
2007,06,28,15,16,19.50
2007,06,28,15,17,19.40
2007,06,28,15,18,19.40
2007,06,28,15,19,19.30
2007,06,28,15,20,19.30
2007,06,28,15,21,19.20
2007,06,28,15,22,19.10
2007,06,28,15,23,19.10
2007,06,28,15,24,19.00
2007,06,28,15,25,18.90
2007,06,28,15,26,18.90
2007,06,28,15,27,18.80
2007,06,28,15,28,18.80
2007,06,28,15,29,18.70
2007,06,28,15,30,18.60
2007,06,28,15,31,18.50
2007,06,28,15,32,18.40
2007,06,28,15,33,18.30
2007,06,28,15,34,18.20
2007,06,28,15,35,18.10
2007,06,28,15,36,18.10
2007,06,28,15,37,17.90
2007,06,28,15,38,17.80
2007,06,28,15,39,17.70
2007,06,28,15,40,17.60
2007,06,28,15,41,17.50
2007,06,28,15,42,17.40
2007,06,28,15,43,17.20
2007,06,28,15,44,17.10
2007,06,28,15,45,17.00
2007,06,28,15,46,16.80
2007,06,28,15,47,16.70
2007,06,28,15,48,16.50
2007,06,28,15,49,16.40
2007,06,28,15,50,16.30
2007,06,28,15,51,16.10
2007,06,28,15,52,16.00
2007,06,28,15,53,15.90
2007,06,28,15,54,15.80
2007,06,28,15,55,15.80
2007,06,28,15,56,15.80
2007,06,28,15,57,15.70
2007,06,28,15,58,15.70
2007,06,28,15,59,15.70
2007,06,28,16,00,15.70
2007,06,28,16,01,15.70
2007,06,28,16,02,15.80
2007,06,28,16,03,15.80
2007,06,28,16,04,15.80
2007,06,28,16,05,15.80
2007,06,28,16,06,15.90
2007,06,28,16,07,15.90
2007,06,28,16,08,15.90
2007,06,28,16,09,15.90
2007,06,28,16,10,15.90
2007,06,28,16,11,15.90
2007,06,28,16,12,15.90
2007,06,28,16,13,15.90
2007,06,28,16,14,15.90
2007,06,28,16,15,15.90
2007,06,28,16,16,15.90
2007,06,28,16,17,15.90
2007,06,28,16,18,15.90
2007,06,28,16,19,16.00
2007,06,28,16,20,16.00
2007,06,28,16,21,16.00
2007,06,28,16,22,16.10
2007,06,28,16,23,16.10
2007,06,28,16,24,16.10
2007,06,28,16,25,16.10
2007,06,28,16,26,16.10
2007,06,28,16,27,16.10
2007,06,28,16,28,16.20
2007,06,28,16,29,16.20
2007,06,28,16,30,16.20
2007,06,28,16,31,16.30
2007,06,28,16,32,16.30
2007,06,28,16,33,16.40
2007,06,28,16,34,16.40
2007,06,28,16,35,16.40
2007,06,28,16,36,16.40
2007,06,28,16,37,16.50
2007,06,28,16,38,16.50
2007,06,28,16,39,16.50
2007,06,28,16,40,16.60
2007,06,28,16,41,16.70
2007,06,28,16,42,16.80
2007,06,28,16,43,16.80
2007,06,28,16,44,16.80
2007,06,28,16,45,16.90
2007,06,28,16,46,16.90
2007,06,28,16,47,16.90
2007,06,28,16,48,17.00
2007,06,28,16,49,17.10
2007,06,28,16,50,17.10
2007,06,28,16,51,17.20
2007,06,28,16,52,17.30
2007,06,28,16,53,17.30
2007,06,28,16,54,17.40
2007,06,28,16,55,17.50
2007,06,28,16,56,17.60
2007,06,28,16,57,17.60
2007,06,28,16,58,17.70
2007,06,28,16,59,17.80
2007,06,28,17,00,17.70
2007,06,28,17,01,17.70
2007,06,28,17,02,17.70
2007,06,28,17,03,17.70
2007,06,28,17,04,17.70
2007,06,28,17,05,17.60
2007,06,28,17,06,17.50
2007,06,28,17,07,17.40
2007,06,28,17,08,17.30
2007,06,28,17,09,17.30
2007,06,28,17,10,17.30
2007,06,28,17,11,17.30
2007,06,28,17,12,17.40
2007,06,28,17,13,17.40
2007,06,28,17,14,17.40
2007,06,28,17,15,17.40
2007,06,28,17,16,17.50
2007,06,28,17,17,17.50
2007,06,28,17,18,17.50
2007,06,28,17,19,17.60